QPF
0.00 0.00 0.00 0.00 0.00 0.00 0.00 0.00 0.00 0.00 0.00 0.00 0.00 0.00 0.00 0.00 0.00 0.00 0.00 0.00 0.00 0.00 0.00 0.00 0.00 0.00 0.01 0.02 0.03 0.05 0.28 0.16 0.07 0.12 0.26 0.26 0.26 0.13 0.12 0.05 0.06 0.05
0.00 0.00 0.00 0.00 0.00 0.00 0.00 0.00 0.00 0.00 0.00 0.00 0.00 0.00 0.00 0.00 0.00 0.00 0.00 0.00 0.00 0.00 0.00 0.01 0.00 0.00 0.02 0.03 0.11 0.12 0.09 0.04 0.04 0.16 0.23 0.07 0.25 0.26 0.26 0.14 0.19 0.25
0.00 0.00 0.00 0.00 0.00 0.00 0.00 0.00 0.00 0.00 0.00 0.00 0.00 0.01 0.00 0.00 0.00 0.00 0.00 0.00 0.00 0.00 0.01 0.00 0.00 0.00 0.00 0.00 0.04 0.20 0.07 0.14 0.14 0.13 0.21 0.22 0.22 0.08 0.13 0.19 0.16 0.13
0.00 0.00 0.00 0.00 0.00 0.00 0.00 0.00 0.00 0.00 0.00 0.00 0.00 0.00 0.00 0.00 0.00 0.00 0.00 0.00 0.00 0.00 0.01 0.01 0.00 0.00 0.00 0.01 0.12 0.13 0.02 0.01 0.01 0.16 0.18 0.06 0.08 0.15 0.14 0.09 0.22 0.08
0.00 0.00 0.00 0.00 0.00 0.00 0.00 0.00 0.00 0.00 0.00 0.00 0.00 0.00 0.00 0.00 0.00 0.00 0.01 0.00 0.00 0.00 0.00 0.00 0.00 0.00 0.00 0.01 0.01 0.02 0.02 0.03 0.08 0.38 0.26 0.07 0.30 0.42 0.20 0.17 0.21 0.10
0.00 0.00 0.00 0.00 0.00 0.00 0.00 0.00 0.00 0.00 0.00 0.00 0.00 0.00 0.00 0.00 0.00 0.00 0.00 0.00 0.00 0.00 0.00 0.00 0.00 0.00 0.00 0.01 0.01 0.01 0.03 0.08 0.01 0.10 0.05 0.10 0.49 0.35 0.33 0.26 0.17 0.11
0.00 0.00 0.00 0.00 0.00 0.00 0.00 0.00 0.00 0.00 0.00 0.00 0.00 0.00 0.00 0.00 0.00 0.01 0.00 0.00 0.00 0.00 0.00 0.01 0.01 0.01 0.02 0.01 0.01 0.01 0.02 0.12 0.07 0.11 0.29 0.32 0.34 0.29 0.27 0.27 0.26 0.17
0.00 0.00 0.00 0.00 0.00 0.00 0.00 0.00 0.00 0.00 0.00 0.00 0.00 0.00 0.00 0.00 0.00 0.00 0.00 0.00 0.00 0.00 0.00 0.01 0.01 0.01 0.01 0.01 0.01 0.01 0.14 0.31 0.34 0.15 0.22 0.36 0.49 0.39 0.38 0.23 0.29 0.27
0.00 0.00 0.00 0.00 0.00 0.00 0.00 0.00 0.00 0.00 0.00 0.00 0.00 0.00 0.00 0.00 0.00 0.00 0.00 0.00 0.00 0.00 0.01 0.01 0.01 0.02 0.02 0.04 0.02 0.02 0.11 0.27 0.34 0.26 0.18 0.19 0.35 0.29 0.26 0.27 0.32 0.35
0.00 0.00 0.00 0.00 0.00 0.00 0.00 0.00 0.00 0.00 0.00 0.00 0.00 0.00 0.00 0.00 0.00 0.00 0.00 0.00 0.00 0.00 0.01 0.01 0.02 0.03 0.03 0.05 0.12 0.04 0.04 0.19 0.21 0.19 0.24 0.30 0.17 0.10 0.18 0.25 0.28 0.27
0.00 0.00 0.00 0.00 0.00 0.00 0.00 0.00 0.00 0.00 0.00 0.00 0.00 0.00 0.00 0.00 0.00 0.00 0.00 0.00 0.01 0.02 0.04 0.01 0.03 0.04 0.09 0.07 0.15 0.11 0.19 0.25 0.22 0.14 0.12 0.17 0.14 0.22 0.24 0.21 0.28 0.20
0.00 0.00 0.00 0.00 0.00 0.00 0.00 0.00 0.00 0.00 0.00 0.00 0.00 0.00 0.00 0.00 0.00 0.00 0.00 0.00 0.00 0.03 0.02 0.00 0.02 0.01 0.02 0.03 0.05 0.11 0.12 0.09 0.14 0.22 0.16 0.20 0.19 0.10 0.15 0.16 0.21 0.15
0.00 0.00 0.00 0.00 0.00 0.00 0.00 0.00 0.00 0.00 0.00 0.00 0.00 0.00 0.00 0.00 0.00 0.00 0.00 0.00 0.00 0.01 0.00 0.00 0.00 0.00 0.01 0.02 0.04 0.07 0.07 0.06 0.08 0.09 0.07 0.07 0.07 0.14 0.16 0.12 0.19 0.13
0.00 0.00 0.00 0.00 0.00 0.00 0.00 0.00 0.00 0.00 0.00 0.00 0.00 0.00 0.00 0.00 0.00 0.00 0.00 0.00 0.00 0.00 0.00 0.00 0.00 0.00 0.01 0.01 0.02 0.02 0.03 0.04 0.05 0.06 0.05 0.05 0.05 0.05 0.08 0.06 0.06 0.07
0.00 0.00 0.00 0.00 0.00 0.00 0.00 0.00 0.00 0.00 0.00 0.00 0.00 0.00 0.00 0.00 0.00 0.00 0.00 0.00 0.00 0.00 0.00 0.00 0.00 0.00 0.01 0.02 0.03 0.03 0.04 0.04 0.04 0.05 0.08 0.06 0.04 0.04 0.04 0.03 0.04 0.04
0.00 0.00 0.00 0.00 0.00 0.00 0.00 0.00 0.00 0.00 0.00 0.00 0.00 0.00 0.00 0.00 0.00 0.00 0.00 0.00 0.00 0.00 0.00 0.00 0.00 0.00 0.01 0.01 0.02 0.03 0.03 0.03 0.03 0.04 0.05 0.07 0.08 0.05 0.04 0.03 0.03 0.03
0.00 0.00 0.00 0.00 0.00 0.00 0.00 0.00 0.00 0.00 0.00 0.00 0.00 0.00 0.00 0.00 0.00 0.00 0.00 0.00 0.00 0.00 0.00 0.00 0.00 0.00 0.00 0.01 0.02 0.02 0.02 0.03 0.03 0.04 0.07 0.07 0.07 0.04 0.04 0.11 0.06 0.04
0.00 0.00 0.00 0.00 0.00 0.00 0.00 0.00 0.00 0.00 0.00 0.00 0.00 0.00 0.00 0.00 0.00 0.00 0.00 0.00 0.00 0.00 0.00 0.00 0.00 0.00 0.00 0.00 0.01 0.02 0.02 0.02 0.02 0.02 0.03 0.03 0.03 0.04 0.07 0.17 0.09 0.05
0.00 0.00 0.00 0.00 0.00 0.00 0.00 0.00 0.00 0.00 0.00 0.00 0.00 0.00 0.00 0.00 0.00 0.00 0.00 0.00 0.00 0.00 0.00 0.00 0.00 0.00 0.00 0.00 0.00 0.01 0.01 0.02 0.02 0.02 0.02 0.02 0.03 0.04 0.12 0.13 0.28 0.05
0.00 0.00 0.00 0.00 0.00 0.00 0.00 0.00 0.00 0.00 0.00 0.00 0.00 0.00 0.00 0.00 0.00 0.00 0.00 0.00 0.00 0.00 0.00 0.00 0.00 0.00 0.00 0.00 0.00 0.00 0.01 0.01 0.02 0.02 0.02 0.02 0.02 0.03 0.05 0.08 0.18 0.08
0.00 0.00 0.00 0.00 0.00 0.00 0.00 0.00 0.00 0.00 0.00 0.00 0.00 0.00 0.00 0.00 0.00 0.00 0.00 0.00 0.00 0.00 0.00 0.00 0.00 0.00 0.00 0.00 0.00 0.00 0.00 0.00 0.01 0.01 0.02 0.02 0.03 0.07 0.05 0.03 0.03 0.03
0.00 0.00 0.00 0.00 0.00 0.00 0.00 0.00 0.00 0.00 0.00 0.00 0.00 0.00 0.00 0.00 0.00 0.00 0.00 0.00 0.00 0.00 0.00 0.00 0.00 0.00 0.00 0.00 0.00 0.00 0.00 0.00 0.00 0.01 0.01 0.02 0.03 0.11 0.07 0.03 0.02 0.02
0.00 0.00 0.00 0.00 0.00 0.00 0.00 0.00 0.00 0.00 0.00 0.00 0.00 0.00 0.00 0.00 0.00 0.00 0.00 0.00 0.00 0.00 0.00 0.00 0.00 0.00 0.00 0.00 0.00 0.00 0.00 0.00 0.00 0.00 0.00 0.01 0.02 0.04 0.05 0.03 0.02 0.02
0.00 0.00 0.00 0.00 0.00 0.00 0.00 0.00 0.00 0.00 0.00 0.00 0.00 0.00 0.00 0.00 0.00 0.00 0.00 0.00 0.00 0.00 0.00 0.00 0.00 0.00 0.00 0.00 0.00 0.00 0.00 0.00 0.00 0.00 0.01 0.01 0.01 0.04 0.03 0.04 0.03 0.03
0.00 0.00 0.00 0.00 0.00 0.00 0.00 0.00 0.00 0.00 0.00 0.00 0.00 0.00 0.00 0.00 0.00 0.00 0.00 0.00 0.00 0.00 0.00 0.00 0.00 0.00 0.00 0.00 0.00 0.00 0.00 0.00 0.00 0.01 0.01 0.01 0.02 0.04 0.04 0.03 0.05 0.04
0.00 0.00 0.00 0.00 0.00 0.00 0.00 0.00 0.00 0.00 0.00 0.00 0.00 0.00 0.00 0.00 0.00 0.00 0.00 0.00 0.00 0.00 0.00 0.00 0.00 0.00 0.00 0.00 0.00 0.00 0.00 0.00 0.00 0.00 0.01 0.02 0.03 0.04 0.05 0.05 0.06 0.06
MSLP
1019.95 1019.83 1019.79 1019.71 1019.63 1019.47 1019.31 1019.23 1019.07 1018.87 1018.59 1018.35 1018.15 1017.83 1017.47 1017.11 1016.83 1016.67 1016.47 1016.27 1016.15 1016.07 1015.91 1015.79 1015.67 1015.59 1015.43 1015.31 1015.15 1015.03 1014.95 1014.95 1014.99 1014.99 1014.75 1014.67 1014.71 1014.67 1014.63 1014.59 1014.59 1014.67
1020.15 1020.03 1019.95 1019.87 1019.83 1019.71 1019.59 1019.43 1019.27 1019.11 1018.87 1018.63 1018.35 1018.07 1017.67 1017.31 1017.03 1016.79 1016.51 1016.27 1016.03 1015.91 1015.71 1015.55 1015.39 1015.31 1015.23 1015.15 1014.95 1014.87 1014.75 1014.67 1014.75 1014.67 1014.67 1014.39 1014.27 1014.23 1014.23 1014.31 1014.39 1014.39
1020.23 1020.23 1020.15 1020.11 1020.07 1019.95 1019.79 1019.59 1019.43 1019.31 1019.15 1018.87 1018.51 1018.23 1017.95 1017.63 1017.39 1016.95 1016.55 1016.27 1016.03 1015.83 1015.67 1015.51 1015.35 1015.19 1015.07 1014.91 1014.71 1014.63 1014.55 1014.35 1014.31 1014.23 1014.59 1014.51 1014.23 1013.99 1013.71 1013.79 1013.99 1014.07
1020.31 1020.31 1020.27 1020.15 1020.07 1019.99 1019.87 1019.79 1019.67 1019.51 1019.31 1018.99 1018.67 1018.39 1018.15 1017.95 1017.67 1017.27 1016.83 1016.47 1016.23 1015.99 1015.79 1015.55 1015.35 1015.07 1014.87 1014.67 1014.47 1014.35 1014.23 1014.07 1013.91 1014.03 1014.07 1013.87 1013.83 1013.75 1013.51 1013.39 1013.51 1013.67
1020.31 1020.27 1020.23 1020.15 1020.07 1020.03 1019.95 1019.91 1019.83 1019.83 1019.63 1019.35 1018.95 1018.55 1018.35 1018.11 1017.83 1017.55 1017.27 1016.91 1016.59 1016.27 1015.95 1015.63 1015.27 1014.99 1014.71 1014.55 1014.31 1014.07 1013.87 1013.79 1013.71 1013.71 1013.67 1013.55 1013.47 1013.59 1013.43 1013.31 1013.35 1013.51
1020.35 1020.35 1020.27 1020.23 1020.19 1020.15 1020.07 1020.03 1020.03 1020.07 1019.95 1019.63 1019.35 1018.95 1018.59 1018.23 1018.03 1017.87 1017.67 1017.51 1017.19 1016.75 1016.23 1015.67 1015.23 1014.83 1014.55 1014.35 1014.11 1013.91 1013.71 1013.63 1013.47 1013.43 1013.47 1013.39 1013.31 1013.39 1013.31 1013.35 1013.43 1013.35
1020.59 1020.51 1020.43 1020.39 1020.31 1020.23 1020.19 1020.23 1020.27 1020.27 1020.19 1019.99 1019.63 1019.31 1018.95 1018.63 1018.43 1018.27 1018.07 1017.95 1017.63 1017.27 1016.83 1016.19 1015.47 1014.87 1014.43 1014.19 1013.99 1013.75 1013.47 1013.35 1013.23 1013.19 1013.23 1013.19 1013.23 1013.19 1013.19 1013.23 1013.31 1013.31
1020.79 1020.67 1020.59 1020.51 1020.47 1020.35 1020.31 1020.39 1020.47 1020.51 1020.39 1020.19 1019.95 1019.67 1019.31 1019.11 1018.83 1018.63 1018.39 1018.19 1018.03 1018.07 1017.83 1017.43 1016.95 1016.31 1015.71 1014.83 1014.15 1013.71 1013.39 1013.23 1013.19 1013.11 1013.03 1013.19 1013.35 1013.31 1013.19 1013.07 1013.07 1013.19
1021.03 1020.91 1020.79 1020.71 1020.63 1020.59 1020.59 1020.59 1020.67 1020.67 1020.59 1020.51 1020.31 1019.99 1019.67 1019.43 1019.23 1018.91 1018.67 1018.39 1018.31 1018.51 1018.19 1017.83 1017.55 1017.23 1016.71 1016.19 1015.51 1014.67 1013.75 1013.27 1013.15 1013.07 1013.03 1013.07 1013.07 1013.07 1013.03 1012.99 1013.07 1013.07
1021.39 1021.23 1021.07 1020.99 1020.91 1020.91 1020.91 1020.87 1020.83 1020.83 1020.79 1020.71 1020.59 1020.31 1020.03 1019.75 1019.51 1019.27 1019.03 1018.79 1018.63 1018.91 1018.75 1018.43 1018.03 1017.75 1017.39 1017.03 1016.51 1015.83 1015.03 1013.79 1013.15 1013.03 1012.91 1012.95 1012.95 1012.83 1012.79 1012.95 1012.91 1012.75
1021.71 1021.51 1021.39 1021.27 1021.23 1021.23 1021.19 1021.15 1020.99 1020.95 1020.95 1020.91 1020.75 1020.55 1020.39 1020.11 1019.83 1019.55 1019.43 1019.31 1018.99 1019.23 1019.19 1018.95 1018.71 1018.47 1018.07 1017.59 1017.07 1016.51 1015.91 1015.03 1013.87 1013.19 1012.99 1012.83 1012.67 1012.55 1012.47 1012.55 1012.55 1012.43
1021.91 1021.79 1021.71 1021.59 1021.55 1021.47 1021.39 1021.31 1021.19 1021.07 1021.03 1021.03 1020.95 1020.87 1020.67 1020.47 1020.31 1020.11 1019.95 1019.83 1019.55 1019.43 1019.59 1019.39 1019.15 1018.91 1018.75 1018.39 1017.83 1017.07 1016.39 1015.59 1014.87 1014.03 1013.23 1012.83 1012.51 1012.39 1012.39 1012.51 1012.47 1012.11
1022.11 1022.11 1022.03 1021.95 1021.79 1021.71 1021.55 1021.43 1021.31 1021.15 1021.07 1021.07 1021.03 1021.03 1020.91 1020.75 1020.59 1020.43 1020.27 1020.23 1020.03 1019.75 1019.71 1019.75 1019.47 1019.15 1018.87 1018.63 1018.19 1017.63 1017.03 1016.19 1015.39 1014.71 1013.83 1012.95 1012.39 1012.15 1012.07 1012.03 1011.87 1011.79
1022.31 1022.31 1022.27 1022.19 1022.07 1021.91 1021.75 1021.63 1021.51 1021.31 1021.19 1021.15 1021.11 1021.11 1021.11 1021.03 1020.95 1020.83 1020.67 1020.43 1020.23 1020.11 1020.03 1019.99 1019.67 1019.19 1018.95 1018.75 1018.51 1017.99 1017.27 1016.59 1015.87 1015.11 1014.39 1013.55 1012.67 1012.15 1012.11 1011.95 1011.75 1011.67
1022.43 1022.39 1022.35 1022.31 1022.27 1022.11 1021.99 1021.83 1021.71 1021.55 1021.39 1021.27 1021.19 1021.19 1021.19 1021.19 1021.11 1020.95 1020.79 1020.63 1020.47 1020.31 1020.19 1020.07 1019.95 1019.87 1019.67 1019.39 1018.59 1017.79 1017.35 1016.71 1016.03 1015.39 1014.75 1013.99 1013.03 1012.31 1011.87 1011.63 1011.59 1011.59
1022.55 1022.51 1022.47 1022.43 1022.31 1022.23 1022.11 1022.03 1021.91 1021.79 1021.67 1021.51 1021.43 1021.31 1021.27 1021.27 1021.19 1021.11 1021.03 1020.95 1020.75 1020.55 1020.39 1020.39 1020.35 1020.31 1020.15 1019.71 1019.19 1018.47 1017.47 1016.79 1016.19 1015.55 1014.95 1014.19 1013.31 1012.51 1011.91 1011.55 1011.35 1011.31
1022.71 1022.67 1022.59 1022.55 1022.51 1022.43 1022.31 1022.19 1022.07 1021.95 1021.87 1021.75 1021.67 1021.55 1021.39 1021.27 1021.31 1021.27 1021.27 1021.27 1021.11 1020.95 1020.75 1020.71 1020.71 1020.59 1020.31 1019.71 1018.95 1018.23 1017.47 1016.79 1016.19 1015.51 1014.83 1014.15 1013.39 1012.75 1012.03 1011.79 1011.55 1011.23
1022.87 1022.83 1022.79 1022.75 1022.67 1022.59 1022.51 1022.39 1022.31 1022.19 1022.11 1022.03 1021.95 1021.87 1021.75 1021.59 1021.47 1021.47 1021.51 1021.43 1021.35 1021.19 1021.03 1020.99 1020.91 1020.71 1020.23 1019.59 1018.87 1018.23 1017.55 1016.75 1016.03 1015.35 1014.59 1013.95 1013.31 1012.71 1012.11 1011.83 1011.63 1011.19
1023.15 1023.11 1023.03 1022.95 1022.95 1022.87 1022.79 1022.71 1022.55 1022.47 1022.39 1022.31 1022.23 1022.23 1022.11 1021.91 1021.83 1021.71 1021.67 1021.67 1021.55 1021.43 1021.31 1021.23 1021.03 1020.79 1020.35 1019.71 1019.03 1018.35 1017.67 1016.87 1015.95 1015.27 1014.67 1014.03 1013.51 1012.99 1012.23 1011.63 1011.39 1011.11
1023.47 1023.43 1023.39 1023.35 1023.31 1023.19 1023.11 1022.99 1022.79 1022.75 1022.71 1022.63 1022.59 1022.43 1022.31 1022.23 1022.11 1022.03 1021.99 1021.99 1021.91 1021.79 1021.63 1021.39 1021.11 1020.99 1020.55 1019.95 1019.31 1018.63 1017.91 1017.23 1016.51 1015.79 1015.03 1014.43 1014.11 1013.67 1013.79 1013.47 1013.07 1012.39
1023.75 1023.75 1023.75 1023.75 1023.67 1023.59 1023.47 1023.39 1023.23 1022.99 1022.87 1022.87 1022.79 1022.75 1022.63 1022.51 1022.39 1022.27 1022.31 1022.31 1022.23 1022.07 1021.87 1021.63 1021.47 1021.31 1020.79 1020.23 1019.67 1019.03 1018.31 1017.63 1017.15 1016.55 1015.87 1015.23 1014.87 1014.51 1014.51 1014.23 1013.95 1013.55
1024.11 1024.07 1024.07 1024.03 1023.99 1023.91 1023.83 1023.71 1023.59 1023.43 1023.15 1023.03 1023.07 1023.03 1022.95 1022.83 1022.67 1022.51 1022.51 1022.51 1022.43 1022.31 1022.15 1021.99 1021.71 1021.51 1021.07 1020.55 1020.03 1019.43 1018.71 1018.11 1017.67 1017.19 1016.67 1016.31 1015.83 1015.47 1015.27 1015.03 1014.59 1014.23
1024.35 1024.31 1024.27 1024.23 1024.19 1024.15 1024.11 1024.03 1023.91 1023.75 1023.59 1023.35 1023.27 1023.27 1023.19 1023.03 1022.87 1022.75 1022.71 1022.71 1022.59 1022.47 1022.35 1022.19 1021.95 1021.63 1021.35 1020.91 1020.43 1019.87 1019.03 1018.67 1018.23 1017.83 1017.39 1017.07 1016.75 1016.39 1016.03 1015.67 1015.31 1014.95
1024.51 1024.47 1024.43 1024.39 1024.35 1024.35 1024.39 1024.35 1024.19 1024.07 1023.91 1023.71 1023.59 1023.51 1023.43 1023.27 1023.11 1022.99 1022.95 1022.95 1022.83 1022.67 1022.47 1022.39 1022.15 1021.83 1021.59 1021.23 1020.79 1020.35 1019.75 1019.27 1018.87 1018.51 1018.15 1017.75 1017.31 1016.95 1016.59 1016.27 1015.91 1015.51
1024.55 1024.55 1024.47 1024.43 1024.43 1024.47 1024.51 1024.47 1024.39 1024.27 1024.23 1024.03 1023.91 1023.83 1023.75 1023.55 1023.31 1023.23 1023.19 1023.11 1023.03 1022.91 1022.59 1022.47 1022.27 1021.95 1021.71 1021.47 1021.07 1020.67 1020.19 1019.75 1019.35 1019.03 1018.51 1018.15 1017.87 1017.47 1017.11 1016.79 1016.35 1015.91
1024.63 1024.55 1024.51 1024.47 1024.51 1024.59 1024.59 1024.59 1024.51 1024.43 1024.39 1024.27 1024.19 1024.19 1024.07 1023.87 1023.67 1023.51 1023.39 1023.31 1023.15 1023.03 1022.83 1022.59 1022.35 1022.11 1021.83 1021.63 1021.35 1020.95 1020.63 1020.23 1019.83 1019.43 1018.99 1018.63 1018.31 1017.99 1017.55 1017.19 1016.91 1016.31
Thickness
5632 5632 5631 5630 5630 5630 5630 5630 5631 5631 5633 5634 5635 5636 5638 5640 5639 5640 5641 5641 5640 5640 5641 5642 5641 5641 5640 5641 5640 5639 5639 5638 5634 5632 5633 5634 5633 5632 5633 5634 5634 5633
5627 5627 5627 5626 5625 5624 5625 5625 5625 5626 5626 5627 5628 5629 5632 5633 5634 5635 5636 5638 5638 5638 5639 5639 5639 5639 5638 5638 5638 5637 5637 5635 5632 5629 5628 5629 5630 5630 5631 5631 5631 5631
5623 5622 5622 5621 5621 5620 5619 5620 5620 5620 5621 5622 5623 5624 5625 5626 5628 5630 5632 5633 5634 5635 5636 5636 5636 5636 5636 5636 5636 5635 5634 5633 5631 5628 5624 5625 5627 5628 5631 5630 5629 5630
5619 5618 5618 5617 5617 5617 5616 5615 5615 5615 5615 5616 5618 5619 5619 5620 5621 5624 5626 5628 5630 5631 5632 5632 5633 5633 5633 5633 5634 5633 5633 5631 5629 5626 5623 5624 5626 5626 5628 5629 5628 5628
5615 5615 5614 5613 5613 5612 5612 5611 5610 5609 5609 5610 5612 5613 5614 5614 5616 5617 5619 5620 5623 5624 5627 5629 5629 5630 5630 5631 5631 5631 5630 5627 5625 5623 5622 5622 5623 5622 5623 5624 5625 5626
5611 5610 5610 5609 5608 5608 5607 5606 5605 5603 5603 5604 5606 5607 5608 5610 5610 5611 5611 5613 5614 5617 5620 5624 5627 5628 5628 5628 5628 5628 5627 5625 5622 5621 5619 5618 5619 5618 5619 5619 5620 5622
5605 5605 5604 5604 5603 5602 5602 5600 5599 5598 5597 5598 5599 5600 5602 5603 5604 5604 5605 5605 5607 5608 5611 5616 5619 5622 5624 5625 5626 5625 5625 5623 5620 5619 5617 5615 5614 5614 5615 5616 5616 5618
5599 5599 5599 5599 5598 5597 5596 5595 5594 5592 5592 5592 5593 5594 5595 5596 5597 5597 5598 5599 5600 5600 5602 5605 5607 5610 5613 5616 5619 5621 5622 5621 5618 5616 5615 5612 5611 5611 5613 5614 5614 5614
5593 5593 5593 5593 5592 5591 5590 5589 5588 5587 5586 5586 5586 5587 5589 5589 5590 5591 5592 5593 5593 5592 5594 5597 5598 5600 5602 5604 5608 5611 5615 5617 5616 5613 5611 5610 5609 5609 5610 5610 5611 5612
5586 5586 5587 5587 5586 5585 5584 5583 5582 5581 5580 5580 5580 5581 5582 5582 5583 5584 5584 5586 5586 5585 5586 5589 5590 5591 5593 5595 5597 5600 5603 5609 5611 5610 5608 5608 5607 5608 5609 5608 5608 5610
5579 5579 5580 5580 5579 5578 5577 5577 5576 5575 5575 5574 5574 5574 5575 5575 5576 5577 5576 5577 5579 5577 5577 5579 5581 5582 5584 5585 5588 5591 5593 5597 5603 5604 5604 5605 5605 5607 5607 5606 5606 5609
5573 5573 5573 5573 5572 5571 5571 5570 5570 5570 5569 5568 5568 5568 5568 5568 5569 5569 5569 5568 5570 5570 5569 5570 5572 5573 5575 5576 5579 5582 5585 5588 5592 5595 5598 5602 5603 5605 5605 5604 5604 5607
5567 5566 5566 5565 5565 5565 5564 5564 5564 5564 5564 5563 5562 5561 5561 5562 5562 5562 5561 5560 5562 5563 5562 5563 5565 5567 5569 5569 5571 5574 5578 5581 5585 5587 5591 5596 5600 5603 5603 5603 5604 5607
5560 5559 5559 5559 5558 5558 5558 5558 5558 5558 5558 5557 5557 5556 5555 5555 5554 5554 5554 5554 5555 5555 5556 5556 5558 5561 5563 5564 5566 5568 5571 5575 5578 5581 5584 5589 5595 5599 5600 5601 5602 5604
5555 5555 5554 5552 5552 5553 5552 5552 5552 5551 5551 5551 5551 5550 5549 5548 5548 5548 5548 5548 5547 5549 5549 5550 5551 5552 5553 5555 5559 5563 5566 5570 5573 5576 5578 5582 5588 5594 5597 5599 5600 5601
5550 5549 5548 5547 5547 5546 5546 5546 5545 5545 5545 5544 5543 5544 5543 5542 5542 5541 5541 5541 5541 5541 5542 5542 5543 5543 5544 5548 5553 5557 5562 5565 5568 5572 5574 5578 5583 5588 5592 5596 5598 5599
5545 5544 5543 5542 5541 5541 5540 5540 5539 5539 5538 5537 5537 5537 5536 5536 5536 5535 5534 5533 5533 5534 5534 5535 5535 5536 5538 5543 5549 5553 5557 5561 5564 5568 5571 5574 5578 5584 5588 5590 5592 5595
5538 5538 5537 5535 5534 5534 5534 5533 5532 5532 5532 5531 5530 5529 5529 5529 5528 5528 5527 5526 5525 5526 5527 5527 5527 5529 5533 5538 5544 5549 5552 5557 5561 5564 5568 5572 5574 5579 5584 5586 5588 5591
5532 5531 5530 5529 5527 5527 5526 5526 5526 5525 5525 5524 5523 5522 5522 5521 5520 5520 5519 5518 5518 5518 5519 5519 5520 5522 5527 5532 5537 5542 5546 5551 5556 5559 5563 5566 5569 5572 5576 5580 5583 5587
5525 5524 5522 5520 5520 5519 5519 5518 5518 5518 5517 5516 5515 5514 5515 5514 5513 5512 5512 5510 5510 5510 5510 5511 5512 5514 5519 5524 5529 5534 5539 5543 5547 5551 5555 5558 5561 5563 5564 5567 5571 5575
5516 5515 5514 5512 5511 5510 5510 5510 5509 5510 5510 5509 5507 5505 5505 5505 5505 5504 5503 5502 5502 5502 5502 5503 5504 5505 5510 5515 5520 5525 5531 5535 5537 5541 5545 5548 5551 5553 5553 5555 5559 5563
5508 5507 5505 5504 5503 5502 5501 5501 5500 5500 5500 5500 5499 5497 5496 5497 5496 5495 5495 5495 5494 5494 5494 5494 5495 5497 5501 5506 5511 5516 5521 5526 5528 5531 5534 5537 5540 5542 5544 5545 5549 5553
5501 5499 5498 5497 5495 5494 5493 5492 5491 5491 5490 5491 5490 5488 5488 5487 5487 5486 5486 5485 5485 5485 5486 5486 5487 5488 5491 5495 5500 5506 5511 5515 5518 5520 5523 5526 5529 5531 5534 5536 5539 5542
5495 5493 5491 5489 5488 5487 5485 5483 5483 5481 5481 5480 5479 5478 5478 5477 5477 5477 5476 5475 5476 5476 5477 5477 5478 5480 5482 5485 5489 5494 5500 5504 5507 5509 5512 5515 5518 5521 5523 5526 5530 5533
5489 5487 5485 5484 5481 5480 5477 5475 5474 5473 5471 5470 5470 5468 5467 5467 5467 5466 5465 5465 5465 5465 5467 5468 5469 5471 5473 5475 5478 5482 5487 5492 5496 5499 5502 5505 5508 5511 5514 5517 5521 5525
5483 5482 5480 5478 5475 5473 5471 5468 5466 5464 5462 5460 5459 5457 5456 5455 5455 5454 5454 5454 5454 5454 5457 5458 5459 5461 5462 5465 5468 5471 5475 5480 5485 5488 5491 5495 5497 5501 5504 5508 5511 5516